Jefferson, OH

1:40 PM EST on December 10, 2016 (GMT -0500)
Ashtabula County

Weather History for KHZY - July, 2013

Change the Weather History Date:

Tuesday, July 23, 2013

  Actual Average (KGKJ) Record (KGKJ)
Temperature  
Mean Temperature 72 °F -  
Max Temperature 82 °F 81 °F 92 °F (1952)
Min Temperature 64 °F 56 °F 45 °F (1985)
Cooling Degree Days 7    
Growing Degree Days 22 (Base 50)    
Moisture  
Dew Point 64 °F    
Average Humidity 84    
Maximum Humidity 94    
Minimum Humidity 56    
Precipitation  
Precipitation 0.75 in - - ()
Sea Level Pressure  
Sea Level Pressure 29.76 in    
Wind  
Wind Speed 3 mph (WNW)    
Max Wind Speed 12 mph    
Max Gust Speed 22 mph    
Visibility 6 miles    
Events Fog , Rain    
Averages and records for this station are not official NWS values.
T = Trace of Precipitation, MM = Missing Value Source: NWS Daily Summary

Daily Weather History Graph

Daily Weather History Graph

Search for Another Location

Airport or City:

Trip Planner

Search our weather history database for the weather conditions in past years. The results will help you decide how hot, cold, wet, or windy it might be!

Date:

Astronomy

Jul. 23, 2013 Rise Set
Actual Time 6:08 AM EDT 8:49 PM EDT
Civil Twilight 5:36 AM EDT 9:21 PM EDT
Nautical Twilight 4:55 AM EDT 10:02 PM EDT
Astronomical Twilight 4:09 AM EDT 10:48 PM EDT
Moon 9:14 PM EDT (7/23) 7:16 AM EDT (7/23)
Length of Visible Light 15h 45m
Length of Day
14h 41m
Full, 99% of the Moon is Illuminated
Jul 23
Full
Jul 29
Last Quarter
Aug 6
New
Aug 14
First Quarter
Aug 20
Full

Hourly Weather History & Observations

Time (EDT) Temp. Heat Index Dew Point Humidity Pressure Visibility Wind Dir Wind Speed Gust Speed Precip Events Conditions
12:20 AM 69.8 °F - 66.2 °F 88% 29.81 in 2.5 mi Calm Calm - N/A   Overcast
12:29 AM 69.8 °F - 66.2 °F 88% 29.80 in 3.0 mi Calm Calm - N/A   Overcast
12:50 AM 68.0 °F - 66.2 °F 94% 29.80 in 2.5 mi Calm Calm - N/A   Mostly Cloudy
12:53 AM 68.0 °F - 66.0 °F 93% 29.78 in 2.0 mi Calm Calm - N/A   Mostly Cloudy
1:05 AM 69.8 °F - 66.2 °F 88% 29.80 in 2.0 mi Calm Calm - N/A   Overcast
1:09 AM 68.0 °F - 66.2 °F 94% 29.79 in 1.0 mi Calm Calm - N/A   Overcast
1:16 AM 68.0 °F - 66.2 °F 94% 29.79 in 0.5 mi Calm Calm - N/A Fog Fog
1:49 AM 68.0 °F - 66.2 °F 94% 29.79 in 1.2 mi Calm Calm - N/A   Overcast
1:53 AM 68.0 °F - 64.9 °F 90% 29.77 in 1.8 mi Calm Calm - N/A   Overcast
2:00 AM 68.0 °F - 64.4 °F 88% 29.79 in 2.0 mi Calm Calm - N/A   Overcast
2:53 AM 66.9 °F - 64.0 °F 90% 29.76 in 2.5 mi Calm Calm - N/A   Mostly Cloudy
3:10 AM 66.2 °F - 64.4 °F 94% 29.79 in 3.0 mi West 4.6 mph - N/A   Overcast
3:30 AM 66.2 °F - 64.4 °F 94% 29.78 in 5.0 mi West 4.6 mph - N/A   Overcast
3:53 AM 66.9 °F - 64.0 °F 90% 29.75 in 5.0 mi Calm Calm - N/A   Scattered Clouds
4:53 AM 64.9 °F - 62.1 °F 90% 29.75 in 5.0 mi WSW 3.5 mph - N/A   Clear
5:53 AM 64.0 °F - 61.0 °F 90% 29.75 in 3.0 mi Calm Calm - 0.01 in   Clear
6:13 AM 64.4 °F - 62.6 °F 94% 29.77 in 2.0 mi Calm Calm - N/A   Clear
6:28 AM 64.4 °F - 60.8 °F 88% 29.77 in 1.2 mi Calm Calm - N/A   Clear
6:53 AM 64.9 °F - 62.1 °F 90% 29.76 in 2.0 mi Calm Calm - N/A   Partly Cloudy
7:06 AM 64.4 °F - 62.6 °F 94% 29.78 in 1.5 mi Calm Calm - N/A   Clear
7:20 AM 66.2 °F - 64.4 °F 94% 29.78 in 2.5 mi Calm Calm - N/A   Partly Cloudy
7:27 AM 66.2 °F - 64.4 °F 94% 29.78 in 3.0 mi Calm Calm - N/A   Scattered Clouds
7:53 AM 68.0 °F - 64.9 °F 90% 29.78 in 4.0 mi Calm Calm - N/A   Mostly Cloudy
8:21 AM 69.8 °F - 66.2 °F 88% 29.78 in 7.0 mi WSW 3.5 mph - N/A   Scattered Clouds
8:53 AM 71.1 °F - 66.0 °F 84% 29.76 in 10.0 mi West 4.6 mph - N/A   Clear
9:11 AM 71.6 °F - 66.2 °F 83% 29.78 in 9.0 mi West 8.1 mph - N/A   Scattered Clouds
9:29 AM 71.6 °F - 66.2 °F 83% 29.77 in 10.0 mi WSW 6.9 mph - N/A   Mostly Cloudy
9:46 AM 73.4 °F - 66.2 °F 78% 29.77 in 10.0 mi West 9.2 mph - N/A   Mostly Cloudy
9:53 AM 73.9 °F - 66.9 °F 79% 29.75 in 10.0 mi WSW 5.8 mph - N/A   Mostly Cloudy
10:08 AM 73.4 °F - 66.2 °F 78% 29.77 in 10.0 mi WSW 6.9 mph - N/A   Scattered Clouds
10:53 AM 77.0 °F - 64.0 °F 64% 29.76 in 10.0 mi West 6.9 mph - N/A   Clear
11:53 AM 79.0 °F - 64.0 °F 60% 29.75 in 10.0 mi West 8.1 mph - N/A   Clear
12:53 PM 80.1 °F 81.5 °F 63.0 °F 56% 29.75 in 10.0 mi WNW 6.9 mph - N/A   Mostly Cloudy
1:53 PM 78.1 °F - 63.0 °F 60% 29.72 in 10.0 mi WSW 8.1 mph - N/A   Mostly Cloudy
2:53 PM 79.0 °F - 64.0 °F 60% 29.70 in 10.0 mi SW 8.1 mph - 0.00 in   Mostly Cloudy
3:53 PM 71.1 °F - 60.1 °F 68% 29.72 in 10.0 mi North 10.4 mph 21.9 mph N/A   Mostly Cloudy
4:05 PM 66.2 °F - 60.8 °F 83% 29.74 in 5.0 mi North 11.5 mph - 0.03 in Rain Light Rain
4:07 PM 66.2 °F - 60.8 °F 83% 29.74 in 2.0 mi NNW 6.9 mph 17.3 mph 0.10 in Rain Heavy Rain
4:09 PM 64.4 °F - 60.8 °F 88% 29.75 in 1.0 mi NNW 8.1 mph - 0.21 in Rain Heavy Rain
4:13 PM 64.4 °F - 60.8 °F 88% 29.75 in 0.2 mi Variable 6.9 mph - 0.44 in Fog , Rain Heavy Rain
4:26 PM 66.2 °F - 62.6 °F 88% 29.73 in 1.5 mi Calm Calm - 0.63 in Rain Light Rain
4:28 PM 66.2 °F - 62.6 °F 88% 29.73 in 3.0 mi Calm Calm - 0.63 in Rain Light Rain
4:41 PM 68.0 °F - 64.4 °F 88% 29.73 in 10.0 mi South 3.5 mph - 0.63 in   Mostly Cloudy
4:53 PM 69.1 °F - 64.9 °F 87% 29.71 in 10.0 mi Calm Calm - 0.63 in   Partly Cloudy
5:53 PM 73.9 °F - 64.9 °F 73% 29.69 in 10.0 mi South 10.4 mph - N/A   Clear
6:53 PM 75.0 °F - 66.0 °F 73% 29.68 in 10.0 mi SSW 4.6 mph - N/A   Clear
7:53 PM 73.0 °F - 66.0 °F 79% 29.68 in 10.0 mi South 5.8 mph - N/A   Clear
8:35 PM 71.6 °F - 66.2 °F 83% 29.72 in 1.8 mi WSW 11.5 mph - 0.09 in Rain Rain
8:45 PM 71.6 °F - 66.2 °F 83% 29.73 in 3.0 mi NNW 11.5 mph 19.6 mph 0.11 in Rain Light Rain
8:53 PM 71.1 °F - 66.0 °F 84% 29.71 in 10.0 mi North 6.9 mph 18.4 mph 0.11 in   Overcast
9:02 PM 69.8 °F - 66.2 °F 88% 29.74 in 10.0 mi North 11.5 mph 16.1 mph N/A   Overcast
9:19 PM 69.8 °F - 64.4 °F 83% 29.75 in 10.0 mi NNW 8.1 mph - N/A   Overcast
9:53 PM 69.1 °F - 62.1 °F 78% 29.75 in 10.0 mi NNW 8.1 mph 17.3 mph N/A   Overcast
10:53 PM 68.0 °F - 59.0 °F 73% 29.78 in 10.0 mi North 8.1 mph - N/A   Overcast
11:51 PM 66.2 °F - 57.2 °F 73% 29.82 in 10.0 mi North 5.8 mph - N/A   Overcast
11:53 PM 66.0 °F - 57.0 °F 73% 29.80 in 10.0 mi North 8.1 mph - N/A   Overcast